TimeEST,TemperatureF,Dew PointF,Humidity,Sea Level PressureIn,VisibilityMPH,Wind Direction,Wind SpeedMPH,Gust SpeedMPH,PrecipitationIn,Events,Conditions,WindDirDegrees,DateUTC
12:15 AM,48.6,48.2,99,29.99,7.0,Calm,Calm,-,N/A,,Overcast,0,2013-12-10 05:15:00
12:35 AM,48.6,48.2,99,29.99,7.0,Calm,Calm,-,N/A,,Overcast,0,2013-12-10 05:35:00
12:55 AM,48.9,48.2,97,29.96,7.0,Calm,Calm,-,N/A,,Overcast,0,2013-12-10 05:55:00
1:15 AM,48.7,48.2,98,29.96,5.0,Calm,Calm,-,N/A,Rain,Rain,0,2013-12-10 06:15:00
1:35 AM,48.6,48.2,99,29.98,2.5,West,5.8,-,N/A,Rain,Heavy Rain,280,2013-12-10 06:35:00
1:55 AM,48.4,48.2,99,29.99,4.0,North,3.5,-,N/A,Rain,Rain,350,2013-12-10 06:55:00
2:15 AM,48.6,48.2,99,29.97,5.0,Calm,Calm,-,N/A,Rain,Light Rain,0,2013-12-10 07:15:00
2:35 AM,48.6,48.2,99,29.96,5.0,SE,3.5,-,N/A,Rain,Light Rain,140,2013-12-10 07:35:00
2:55 AM,48.6,48.2,99,29.95,4.0,Calm,Calm,-,N/A,,Drizzle,0,2013-12-10 07:55:00
3:15 AM,48.7,48.6,99,29.96,3.0,West,5.8,-,N/A,Rain,Heavy Rain,260,2013-12-10 08:15:00
3:35 AM,48.6,48.4,99,29.95,4.0,Calm,Calm,-,N/A,Rain,Rain,0,2013-12-10 08:35:00
3:55 AM,48.7,48.4,99,29.95,5.0,West,3.5,-,N/A,Rain,Heavy Rain,280,2013-12-10 08:55:00
4:15 AM,48.7,48.6,99,29.97,4.0,Calm,Calm,-,N/A,Rain,Rain,0,2013-12-10 09:15:00
4:35 AM,48.7,48.6,99,29.95,5.0,Calm,Calm,-,N/A,Rain,Light Rain,0,2013-12-10 09:35:00
5:35 AM,47.8,46.6,95,29.96,5.0,West,10.4,-,N/A,Rain,Rain,280,2013-12-10 10:35:00
5:55 AM,47.1,45.7,95,29.97,10.0,West,6.9,-,N/A,Rain,Light Rain,280,2013-12-10 10:55:00
6:15 AM,46.6,45.5,96,29.97,10.0,WNW,6.9,-,N/A,,Overcast,290,2013-12-10 11:15:00
6:35 AM,46.4,44.6,93,29.98,10.0,West,5.8,-,N/A,Rain,Light Rain,280,2013-12-10 11:35:00
6:55 AM,45.3,44.1,95,29.98,10.0,WSW,5.8,-,N/A,,Overcast,250,2013-12-10 11:55:00
7:15 AM,44.6,43.5,96,29.99,10.0,West,8.1,-,N/A,,Light Drizzle,270,2013-12-10 12:15:00
7:35 AM,43.9,42.8,96,29.99,10.0,WSW,5.8,-,N/A,,Overcast,250,2013-12-10 12:35:00
7:55 AM,43.5,42.6,97,29.99,10.0,SW,4.6,-,N/A,,Overcast,220,2013-12-10 12:55:00
8:15 AM,42.8,41.9,97,30.01,10.0,WSW,8.1,-,N/A,,Overcast,250,2013-12-10 13:15:00
8:35 AM,42.8,41.9,97,30.03,10.0,West,4.6,-,N/A,,Overcast,280,2013-12-10 13:35:00
8:55 AM,42.1,40.8,95,30.04,10.0,West,9.2,-,N/A,,Overcast,270,2013-12-10 13:55:00
9:15 AM,42.1,40.5,94,30.05,10.0,West,8.1,-,N/A,,Overcast,280,2013-12-10 14:15:00
9:35 AM,42.8,40.6,92,30.07,10.0,West,11.5,-,N/A,,Overcast,270,2013-12-10 14:35:00
9:55 AM,42.4,40.3,92,30.10,10.0,WNW,10.4,-,N/A,,Overcast,290,2013-12-10 14:55:00
10:15 AM,41.5,36.7,83,30.14,10.0,North,5.8,-,N/A,,Overcast,360,2013-12-10 15:15:00
10:35 AM,41.4,34.7,77,30.15,10.0,NE,11.5,20.7,N/A,,Overcast,40,2013-12-10 15:35:00
10:55 AM,42.8,34.2,72,30.16,10.0,NNW,4.6,-,N/A,,Overcast,340,2013-12-10 15:55:00
11:15 AM,42.1,33.1,70,30.18,10.0,North,4.6,21.9,N/A,,Overcast,10,2013-12-10 16:15:00
11:35 AM,40.3,32.2,73,30.20,10.0,ENE,5.8,18.4,N/A,,Mostly Cloudy,60,2013-12-10 16:35:00
11:55 AM,41.5,30.2,64,30.19,10.0,NW,5.8,20.7,N/A,,Scattered Clouds,320,2013-12-10 16:55:00
12:15 PM,42.8,30.0,61,30.18,10.0,NE,11.5,20.7,N/A,,Clear,40,2013-12-10 17:15:00
12:35 PM,41.7,30.9,66,30.18,10.0,NE,11.5,-,N/A,,Clear,40,2013-12-10 17:35:00
12:55 PM,41.2,30.7,66,30.18,10.0,NE,8.1,-,N/A,,Clear,40,2013-12-10 17:55:00
1:15 PM,41.7,31.8,68,30.18,10.0,ENE,9.2,-,N/A,,Clear,70,2013-12-10 18:15:00
1:35 PM,42.3,31.5,66,30.18,10.0,ENE,9.2,-,N/A,,Clear,60,2013-12-10 18:35:00
1:55 PM,42.4,29.7,61,30.18,10.0,ENE,8.1,17.3,N/A,,Clear,70,2013-12-10 18:55:00
2:15 PM,42.6,30.6,62,30.19,10.0,East,11.5,-,N/A,,Clear,100,2013-12-10 19:15:00
2:35 PM,43.3,27.3,53,30.19,10.0,NE,11.5,19.6,N/A,,Clear,50,2013-12-10 19:35:00
2:55 PM,42.1,28.9,60,30.19,10.0,East,11.5,16.1,N/A,,Clear,80,2013-12-10 19:55:00
3:15 PM,42.3,27.9,57,30.20,10.0,NE,9.2,-,N/A,,Clear,40,2013-12-10 20:15:00
3:35 PM,41.0,25.9,55,30.20,10.0,NNE,8.1,16.1,N/A,,Clear,20,2013-12-10 20:35:00
3:55 PM,40.3,27.5,60,30.21,10.0,ENE,11.5,16.1,N/A,,Clear,60,2013-12-10 20:55:00
4:15 PM,39.2,26.8,61,30.22,10.0,ENE,11.5,17.3,N/A,,Clear,60,2013-12-10 21:15:00
4:35 PM,38.3,27.0,64,30.23,10.0,NE,11.5,-,N/A,,Clear,50,2013-12-10 21:35:00
4:55 PM,37.2,25.7,63,30.24,10.0,NE,10.4,-,N/A,,Clear,50,2013-12-10 21:55:00
5:15 PM,35.6,25.7,67,30.25,10.0,ENE,10.4,-,N/A,,Clear,70,2013-12-10 22:15:00
5:35 PM,34.7,25.0,68,30.26,10.0,ENE,9.2,-,N/A,,Clear,70,2013-12-10 22:35:00
5:55 PM,33.3,25.5,73,30.27,10.0,East,10.4,-,N/A,,Clear,80,2013-12-10 22:55:00
6:15 PM,32.4,26.1,78,30.28,10.0,ENE,5.8,-,N/A,,Clear,60,2013-12-10 23:15:00
6:35 PM,31.6,26.4,81,30.28,10.0,NE,3.5,-,N/A,,Clear,50,2013-12-10 23:35:00
6:55 PM,30.9,26.2,83,30.28,10.0,NE,3.5,-,N/A,,Clear,40,2013-12-10 23:55:00
7:15 PM,31.1,25.9,81,30.29,10.0,East,4.6,-,N/A,,Clear,100,2013-12-11 00:15:00
7:35 PM,30.2,26.2,85,30.30,10.0,Calm,Calm,-,N/A,,Clear,0,2013-12-11 00:35:00
7:55 PM,29.5,26.2,88,30.30,10.0,Calm,Calm,-,N/A,,Clear,0,2013-12-11 00:55:00
8:15 PM,29.8,26.6,88,30.30,10.0,Calm,Calm,-,N/A,,Clear,0,2013-12-11 01:15:00
8:35 PM,29.3,26.2,88,30.31,10.0,Calm,Calm,-,N/A,,Clear,0,2013-12-11 01:35:00
8:55 PM,29.5,27.0,90,30.32,10.0,SW,3.5,-,N/A,,Clear,230,2013-12-11 01:55:00
9:15 PM,29.1,27.1,92,30.32,10.0,Calm,Calm,-,N/A,,Clear,0,2013-12-11 02:15:00
9:35 PM,28.6,27.0,94,30.32,10.0,West,3.5,-,N/A,,Clear,270,2013-12-11 02:35:00
9:55 PM,28.2,25.9,91,30.31,10.0,Calm,Calm,-,N/A,,Clear,0,2013-12-11 02:55:00
10:15 PM,27.9,26.4,94,30.31,10.0,West,3.5,-,N/A,,Clear,280,2013-12-11 03:15:00
10:35 PM,27.7,26.6,96,30.31,10.0,Calm,Calm,-,N/A,,Clear,0,2013-12-11 03:35:00
10:55 PM,27.7,25.9,93,30.32,10.0,Calm,Calm,-,N/A,,Clear,0,2013-12-11 03:55:00
11:15 PM,27.1,25.9,95,30.31,10.0,Calm,Calm,-,N/A,,Clear,0,2013-12-11 04:15:00
11:35 PM,26.6,25.2,94,30.32,10.0,Calm,Calm,-,N/A,,Clear,0,2013-12-11 04:35:00
11:55 PM,26.2,24.6,94,30.32,10.0,NNE,3.5,-,N/A,,Clear,20,2013-12-11 04:55:00